This is the latest recevied weather packets stored in our database for station/object W8RSN-13. If no packets are shown the sender has not sent any weather packets the latest 10 day(s).
| Time | Temp. | Humidity | Pressure | Rain* | Wind** | Luminosity | Snow |
|---|---|---|---|---|---|---|---|
| 1787595498 | 34.44° C | 32% | 1017.1 hPa | - | - | - | - |
| 1787595197 | 34.44° C | 32% | 1017 hPa | - | - | - | - |
| 1787594896 | 33.89° C | 32% | 1017 hPa | - | - | - | - |
| 1787594615 | 33.33° C | 34% | 1017.1 hPa | - | - | - | - |
| 1787594314 | 33.33° C | 34% | 1017.1 hPa | - | - | - | - |
| 1787594013 | 32.78° C | 33% | 1017.3 hPa | - | - | - | - |
| 1787593712 | 32.78° C | 34% | 1017.3 hPa | - | - | - | - |
| 1787593412 | 32.78° C | 33% | 1017.2 hPa | - | - | - | - |
| 1787593111 | 32.78° C | 33% | 1017.4 hPa | - | - | - | - |
| 1787592809 | 32.78° C | 34% | 1017.1 hPa | - | - | - | - |
| 1787592509 | 32.22° C | 35% | 1017.2 hPa | - | - | - | - |
| 1787592208 | 32.22° C | 35% | 1017.3 hPa | - | - | - | - |
| 1787591907 | 32.22° C | 33% | 1017.3 hPa | - | - | - | - |
| 1787591606 | 31.67° C | 36% | 1017.2 hPa | - | - | - | - |
| 1787591305 | 31.67° C | 36% | 1017.3 hPa | - | - | - | - |
| 1787591017 | 31.67° C | 35% | 1017.4 hPa | - | - | - | - |
| 1787590703 | 31.67° C | 35% | 1017.3 hPa | - | - | - | - |
| 1787590402 | 31.11° C | 36% | 1017.4 hPa | - | - | - | - |
| 1787590101 | 30.56° C | 37% | 1017.3 hPa | - | - | - | - |
| 1787589801 | 30.56° C | 38% | 1017.3 hPa | - | - | - | - |
| 1787589499 | 30° C | 38% | 1017.5 hPa | - | - | - | - |
| 1787589198 | 30° C | 37% | 1017.3 hPa | - | - | - | - |
| 1787588898 | 30.56° C | 38% | 1017.4 hPa | - | - | - | - |
| 1787588597 | 30.56° C | 37% | 1017.3 hPa | - | - | - | - |
| 1787588296 | 30° C | 37% | 1017.2 hPa | - | - | - | - |
* Rain since midnight (hover to see other rain measurements)
** Current wind speed in m/s (hover to see current wind gust speed)